User: anonymous   Login
Location: Unspecified
(0.0000°N, 0.0000°E)
Time: 23:04:37
(UTC+00:00)
Language:

STARLINK-34992 - Orbit

View from above orbital plane
View from above orbital plane
View from above satellite
View from above satellite

Ground track
Ground track

The orbit is defined by the following mean orbital elements,

1 65412U          26145.51743786 +.00000000 +00000-0 +10711-2 0 00002
2 65412  53.1586 235.0169 0000286  78.3913 281.7121 15.31722713    05
Epoch (UTC): 25 May 2026 12:25:06
Eccentricity: 0.0000286
inclination: 53.1586°
perigee height: 470 km
apogee height: 471 km
right ascension of ascending node: 235.0169°
argument of perigee: 78.3913°
revolutions per day: 15.31722713
mean anomaly at epoch: 281.7121°

The dashed part of the orbit path shows where the satellite is in the earth's shadow,  

DLR